Regional Weather Roundup
Issued by NWS

Home | Current Version | Previous Version | Text Only | Print | Product List | Glossary Off
Versions: 1 2 3 4 5 6 7 8 9 10 11 12 13 14 15 16 17 18 19 20 21 22 23 24 25 26 27 28 29 30 31 32 33 34 35 36 37 38 39 40 41 42 43 44 45 46 47 48 49 50

000
ASUS45 KTFX 201304
RWRMT
MONTANA HOURLY WEATHER ROUNDUP
NATIONAL WEATHER SERVICE GREAT FALLS MT
704 AM MDT WED AUG 20 2014

NOTE: "FAIR" INDICATES FEW OR NO CLOUDS BELOW 12000 FEET WITH NO
SIGNIFICANT WEATHER AND/OR OBSTRUCTIONS TO VISIBILITY.

* THESE STATIONS ARE NOT UNDER NWS QUALITY CONTROL. THEY DO NOT
   REPORT WEATHER SUCH AS PRECIPITATION OR FOG.

MTZ001>007-043-201400-
WEST OF THE DIVIDE
CITY           SKY/WX    TMP DP  RH WIND       PRES   REMARKS
KALISPELL      CLOUDY    55  54  96 N5        29.83S
MISSOULA       PTCLDY    52  48  86 NW6       29.87R
BUTTE          PTCLDY    46  41  83 S3        29.96R
MULLAN PASS    MOCLDY    54  45  72 SW3       29.94R
* ESSEX        N/A       53  51  93 E2G8       N/A
* LINCOLN      N/A       53  45  74 NE3G9      N/A
* LOOKOUT PASS N/A       50  50 100 S3         N/A
* POLSON       N/A       55  54  96 N2         N/A
* RONAN APT    MOCLDY    61  54  78 N/A        N/A
* SEELEY LAKE  N/A       49  48  96 N/A        N/A
* THOMP F APT  MOCLDY    50  44  80 NE2G8      N/A
* YAAK HILL    N/A       56  53  90 E1         N/A
$$

MTZ008-052>055-201400-
SOUTHWEST MONTANA
CITY           SKY/WX    TMP DP  RH WIND       PRES   REMARKS
BOZEMAN        MOCLDY    52  46  80 SE7       29.90R
DILLON         MOCLDY    55  46  72 CALM      29.93R
W YELLOWSTONE  FOG       46  46 100 CALM      30.05R VSB 3/4
* THREE FORKS  CLOUDY    57  55  93 N/A        N/A
* BOULDER HILL N/A       57  39  51 W2         N/A
* RAYNOLDS PAS N/A       44  26  49 SE5        N/A
* WHITEHALL    N/A       53  47  80 W3G9       N/A
* WISE RIVER   N/A       43  40  89 W4         N/A
$$

MTZ009>010-012-014-046-048-049-054-201400-
EAST SLOPES AND CENTRAL MONTANA
CITY           SKY/WX    TMP DP  RH WIND       PRES   REMARKS
CUT BANK       PTCLDY    52  48  86 NE3       29.82R
GREAT FALLS    CLOUDY    55  50  83 SW6       29.83R
HELENA         MOCLDY    63  46  54 S3        29.85R
MALMSTROM AFB  MOCLDY    59  50  72 SW5       29.85R
* CONRAD       MOCLDY    54  54 100 W6         N/A
* DEARBORN     N/A       60  45  58 NE1        N/A
* EAST GLACIER N/A       56  44  64 NW7G12     N/A
* MONARCH      N/A       53  40  62 S1         N/A
* PENDROY      N/A       56  51  83 SW6G11     N/A
* ROGERS PASS  N/A       54  41  62 NW3        N/A
* SAINT MARY   N/A       48  44  86 S3         N/A
* SWEET GRASS  N/A       54  54 100 NW3        N/A
$$

MTZ011-013-016-021-035-040-045-047-050-051-201400-
NORTH CENTRAL MONTANA
CITY           SKY/WX    TMP DP  RH WIND       PRES   REMARKS
HAVRE          CLOUDY    57  55  93 W5        29.77R
LEWISTOWN      CLOUDY    63  46  54 SW8       29.83R
* CHESTER      N/A       56  53  90 NE1        N/A
* DENTON       N/A       58  44  60 S8         N/A
* GEYSER       N/A       58  46  65 W5         N/A
* JUDITH GAP   N/A       61  47  60 NW8        N/A
* LOMA         N/A       59  50  72 SW6        N/A
$$

MTZ017>020-022>027-061-062-201400-
NORTHEAST MONTANA
CITY           SKY/WX    TMP DP  RH WIND       PRES   REMARKS
GLASGOW        MOCLDY    63  54  73 W8        29.64R
GLENDIVE       CLOUDY    70  61  73 SW15      29.66S
JORDAN         CLOUDY    66  54  65 W7        29.67R
SIDNEY         CLOUDY    66  63  90 W5        29.62F
WOLF POINT     MOCLDY    63  54  73 CALM      29.61R
* BEAVER HILL  N/A       70  60  71 SE17G22    N/A
* CIRCLE       N/A       63  53  70 N/A        N/A
* LINDSAY DVD  N/A       72  49  44 W12        N/A
* SACO         N/A       63  59  87 W8         N/A
$$

MTZ028>042-056>058-201400-
SOUTHCENTRAL AND SOUTHEAST MONTANA
CITY           SKY/WX    TMP DP  RH WIND       PRES   REMARKS
BAKER          CLOUDY    66  61  84 SE5       29.70R
BILLINGS       CLOUDY    70  45  41 CALM      29.80R
LIVINGSTON     MOCLDY    63  45  52 SW12      29.87R
MILES CITY     CLOUDY    72  45  38 W10       29.67R
* LAUREL APT   CLOUDY    66  45  47 N/A        N/A
* ROUNDUP APT  CLOUDY    66  43  43 N/A        N/A
* ALZADA       N/A       70  56  61 E5         N/A
* HYSHAM       N/A       67  42  40 W2         N/A
* LAME DEER    N/A       63  48  58 W10        N/A
* REED POINT   N/A       63  48  58 SW3        N/A
* ROSCOE HILL  N/A       63  37  38 S6         N/A
$$

REGIONAL REPORTS...DAKOTAS
CITY           SKY/WX    TMP DP  RH WIND       PRES   REMARKS
WILLISTON      MOCLDY    72  61  68 S3        29.63R
DICKINSON      MOCLDY    68  63  84 S9        29.67R
BEACH          N/A       64  64 100 SE6       29.69R
CROSBY         TSTM      64  64 100 E5        29.64F
TIOGA          CLEAR     64  64 100 SE6       29.69R
WATFORD CITY   FAIR      70  63  79 S9        29.63R
BISMARCK       PTCLDY    66  63  90 E8        29.72S
GRAND FORKS    MOCLDY    64  63  97 SE6       29.78R
FARGO          CLEAR     70  63  79 SE8       29.79R
BUFFALO SD     CLOUDY    70  57  64 SE9       29.66R
RAPID CITY     CLOUDY    64  59  84 NE5       29.74R
$$

REGIONAL REPORTS...WYOMING/IDAHO/WASHINGTON
CITY           SKY/WX    TMP DP  RH WIND       PRES   REMARKS
GILLETTE       PTCLDY    66  46  49 SW14      29.78R
SHERIDAN       CLOUDY    66  48  52 NW7       29.81R
CODY           CLOUDY    66  43  43 SW7       29.88R
YELLOWSTONE LA MOCLDY    37  37 100 CALM      30.11R
SALMON         CLEAR     50  48  93 CALM      29.91R
MULLAN PASS    MOCLDY    54  45  72 SW3       29.94S
SAND POINT     CLEAR     54  54 100 CALM      29.78S
SPOKANE        MOCLDY    63  54  73 SW17      29.76R
$$

REGIONAL REPORTS...ALBERTA
CITY           SKY/WX    TMP DP  RH WIND       PRES   REMARKS
CALGARY        MOCLDY    54  50  86 N12       29.85R
EDMONTON       LGT RAIN  52  48  86 SW5       29.84R
$$

REGIONAL REPORTS...SASKATCHEWAN
CITY           SKY/WX    TMP DP  RH WIND       PRES   REMARKS
SWIFT CURRENT  PTCLDY    59  57  93 W9        29.71R

$$



USA.gov is the U.S. government's official web portal to all federal, state and local government web resources and services.